Powrót do katalogu

FENGYUN 1C DEB

AktywnySSO
NORAD 31431·DEBRIS·🇨🇳 China

Wystrzelony May 10, 1999 z Taiyuan Satellite Launch Center

Loading…

Następne Przeloty (najbliższe 24 godziny)

TLE

ŚwieżeSource: Space-Track

Epoka: Sep 14, 2026, 02:53 UTC

1 31431U 99025BTT 26257.12057279  .00001286  00000-0  77139-3 0  9999
2 31431  98.5186 133.5445 0134592  39.6740 321.4182 14.04154858983954

Śledź FENGYUN 1C DEB w czasie rzeczywistym z AllMySat

Download on the App Store